Weather History for Bettles, AK

Change the Weather History Date:

Thursday, March 7, 2013

  Actual Average Record
Temperature  
Mean Temperature 6 °F -  
Max Temperature 26 °F 12 °F 37 °F (1965)
Min Temperature -13 °F -12 °F -44 °F (1989)
Degree Days  
Heating Degree Days 58    
Moisture  
Dew Point 6 °F    
Average Humidity 63    
Maximum Humidity 81    
Minimum Humidity 44    
Precipitation  
Precipitation 0.00 in - - ()
Snow  
Snow 0.00 in - - ()
Snow Depth 17.00 in    
Sea Level Pressure  
Sea Level Pressure 29.74 in    
Wind  
Wind Speed 7 mph (NNE)    
Max Wind Speed 12 mph    
Max Gust Speed 18 mph    
Visibility 10 miles    
Events      
Averages and records for this station are not official NWS values.
T = Trace of Precipitation, MM = Missing Value Source: NWS Daily Summary

Daily Weather History Graph

Daily Weather History Graph

Search for Another Location

Airport:

Trip Planner

Search our weather history database for the weather conditions in past years. The results will help you decide how hot, cold, wet, or windy it might be!

Date:

Astronomy

Mar. 07, 2013 Rise Set
Actual Time 7:55 AM AKST 6:39 PM AKST
Civil Twilight 7:03 AM AKST 7:32 PM AKST
Nautical Twilight 6:01 AM AKST 8:35 PM AKST
Astronomical Twilight 4:54 AM AKST 9:42 PM AKST
Moon 6:44 AM AKST (3/7) 1:03 PM AKST (3/7)
Length of Visible Light 12h 29m
Length of Day
10h 43m
Waning Crescent, 19% of the Moon is Illuminated
Mar 7
Waning Crescent
Mar 11
New
Mar 19
First Quarter
Mar 27
Full
Apr 2
Last Quarter

Hourly Weather History & Observations

Time (AKST) Temp. Windchill Dew Point Humidity Pressure Visibility Wind Dir Wind Speed Gust Speed Precip Events Conditions
12:53 AM 14.0 °F 3.9 °F 5.0 °F 67% 29.94 in 10.0 mi NNE 6.9 mph - N/A   Overcast
1:53 AM 14.0 °F 6.5 °F 3.9 °F 64% 29.93 in 10.0 mi North 4.6 mph - N/A   Overcast
2:45 AM 12.2 °F -0.2 °F 3.2 °F 67% 29.85 in 10.0 mi NNE 9.2 mph - N/A   Overcast
3:08 AM 14.0 °F 3.9 °F 3.2 °F 62% 29.84 in 10.0 mi North 6.9 mph - N/A   Overcast
3:53 AM 14.0 °F 2.9 °F 5.0 °F 67% 29.88 in 10.0 mi North 8.1 mph - N/A   Overcast
4:53 AM 12.0 °F 1.5 °F 1.9 °F 64% 29.87 in 10.0 mi North 6.9 mph - N/A   Scattered Clouds
5:53 AM 9.0 °F -4.2 °F -0.0 °F 67% 29.85 in 10.0 mi NNE 9.2 mph - N/A   Scattered Clouds
6:53 AM 9.0 °F -5.9 °F 3.0 °F 77% 29.85 in 10.0 mi NNE 11.5 mph - N/A   Partly Cloudy
7:53 AM 10.0 °F -4.5 °F 3.0 °F 73% 29.81 in 10.0 mi NNE 11.5 mph - N/A   Partly Cloudy
8:53 AM 9.0 °F -4.2 °F -0.0 °F 67% 29.79 in 10.0 mi NNE 9.2 mph - N/A   Mostly Cloudy
9:53 AM 12.0 °F -2.0 °F 1.9 °F 64% 29.78 in 10.0 mi NE 11.5 mph 18.4 mph N/A   Mostly Cloudy
10:53 AM 14.0 °F 6.5 °F 3.0 °F 62% 29.78 in 10.0 mi Variable 4.6 mph - N/A   Mostly Cloudy
11:53 AM 17.1 °F 5.8 °F 3.9 °F 56% 29.74 in 10.0 mi NE 9.2 mph - N/A   Mostly Cloudy
12:53 PM 19.0 °F 7.5 °F 1.9 °F 47% 29.71 in 10.0 mi NNE 10.4 mph - N/A   Mostly Cloudy
1:53 PM 22.1 °F 10.6 °F 3.0 °F 44% 29.66 in 10.0 mi NNE 11.5 mph - N/A   Scattered Clouds
2:53 PM 25.0 °F 15.5 °F 12.0 °F 58% 29.63 in 10.0 mi North 9.2 mph - N/A   Mostly Cloudy
3:53 PM 25.0 °F 20.7 °F 9.0 °F 51% 29.64 in 10.0 mi South 3.5 mph - N/A   Overcast
4:53 PM 26.1 °F 20.5 °F 10.9 °F 53% 29.60 in 10.0 mi North 4.6 mph - N/A   Overcast
5:53 PM 26.1 °F 17.6 °F 10.9 °F 53% 29.60 in 10.0 mi North 8.1 mph - N/A   Overcast
6:53 PM 19.9 °F 14.9 °F 9.0 °F 62% 29.62 in 10.0 mi South 3.5 mph - N/A   Overcast
7:53 PM 18.0 °F 12.7 °F 12.0 °F 78% 29.62 in 10.0 mi ENE 3.5 mph - N/A   Overcast
8:53 PM 17.1 °F - 10.9 °F 77% 29.63 in 10.0 mi Calm Calm - N/A   Overcast
9:53 PM 16.0 °F - 10.9 °F 81% 29.63 in 10.0 mi Calm Calm - N/A   Overcast
10:53 PM 15.1 °F - 10.0 °F 80% 29.63 in 10.0 mi Calm Calm - N/A   Overcast
11:53 PM 17.1 °F - 8.1 °F 68% 29.63 in 10.0 mi Calm Calm - N/A   Overcast